Regional Weather Roundup
Issued by NWS Spokane, WA

Home | Current Version | Previous Version | Text Only | Print | Product List | Glossary On
Versions: 1 2 3 4 5 6 7 8 9 10 11 12 13 14 15 16 17 18 19 20 21 22 23 24 25 26 27 28 29 30 31 32 33 34 35 36 37 38 39 40 41 42 43 44 45 46 47 48 49 50
000
NZUS01 KOTX 270610
RWROTX
EASTERN WASHINGTON/NORTHERN IDAHO ROUNDUP
NATIONAL WEATHER SERVICE, SPOKANE WA
1000 PM PST FRI DEC 26 2014

Note: "fair" indicated few or no clouds below 12,000 feet with no
significant weather and/or obstructions to visibility.

...NORTHEAST WASHINGTON AND NORTHERN IDAHO PANHANDLE...

CITY           SKY/WX    TMP DP  RH WIND       PRES   REMARKS
SPOKANE INTL   PTCLDY    22  20  92 CALM      30.25S
SPOKANE DOWNTO MOCLDY    25  22  88 E3        30.29F FOG
COEUR D ALENE  CLOUDY    27  25  93 CALM      30.26F
DEER PARK      FOG       27  26  96 CALM      30.27S VSB 1
SANDPOINT      CLOUDY    28  28 100 S7        30.27S WCI  21

...SOUTHEAST WASHINGTON AND SOUTHERN IDAHO PANHANDLE...

CITY           SKY/WX    TMP DP  RH WIND       PRES   REMARKS
WALLA WALLA    CLEAR     36  25  64 SE7       30.31S
PULLMAN/MOSCOW CLEAR     27  25  92 CALM      30.28S
LEWISTON       CLEAR     30  25  81 CALM      30.32R
LOWELL           N/A     32  31  96 CALM      30.36S

...COLUMBIA BASIN...

CITY           SKY/WX    TMP DP  RH WIND       PRES   REMARKS
EPHRATA        CLEAR     25  22  88 N6        30.26F WCI  18
MOSES LAKE     CLEAR     25  23  92 N3        30.27F
TRI CITIES     CLEAR     30  27  88 E5        30.32S WCI  25
HERMISTON      CLEAR     31  26  82 SE5       30.31S WCI  26
PENDLETON      MOCLDY    32  25  75 S12       30.30S WCI  23

...EAST SLOPES CASCADES...

CITY           SKY/WX    TMP DP  RH WIND       PRES   REMARKS
THE DALLES     CLEAR     34  30  85 SE5       30.34R WCI  30
YAKIMA         CLEAR     24  20  84 NW5       30.30S WCI  18
ELLENSBURG     CLEAR     29  23  78 CALM      30.25S
WENATCHEE      CLEAR     31  24  75 CALM      30.27S
OMAK           PTCLDY    24  20  84 CALM      30.28S

...SOUTHERN BRITISH COLUMBIA...

CITY           SKY/WX    TMP DP  RH WIND       PRES   REMARKS
PENTICTON      MOCLDY    34  27  75 S8        30.26S WCI  27
CRANBROOK      CLOUDY    19  16  86 SW2       30.18F

...WESTERN MONTANA...

CITY           SKY/WX    TMP DP  RH WIND       PRES   REMARKS
MISSOULA       CLOUDY    24  21  88 CALM      30.24R

...NEIGHBORING CITIES...

CITY           SKY/WX    TMP DP  RH WIND       PRES   REMARKS
SEATTLE        CLOUDY    41  35  79 E3        30.35R
CALGARY        MOCLDY    23   9  54 VRB2      29.96S



USA.gov is the U.S. government's official web portal to all federal, state and local government web resources and services.